Cloud_Cover
1 3 0 0 0 0 0 0 0 0 0 0 0 0 0 0 0 0 0 0 0 83 23 100 100 100 99 99 66 56 98 100 40 19 18 43 2 0 0 0 0 6 0 0 0
2 0 0 0 0 0 0 0 0 0 0 0 0 0 0 2 0 0 1 0 0 43 20 59 90 100 100 98 64 24 96 99 29 3 28 2 2 10 0 0 0 0 0 0 0
0 0 0 0 0 0 0 0 0 0 0 0 0 0 0 0 0 0 0 0 0 66 100 100 72 100 100 73 100 99 100 100 2 0 2 1 4 78 64 8 5 0 0 0 0
0 0 0 0 0 0 0 0 0 0 0 0 0 0 0 0 0 0 0 0 0 99 100 100 100 100 100 100 100 100 94 32 98 0 1 100 7 99 0 0 0 0 0 1 0
0 0 0 0 0 0 0 0 0 0 0 0 0 1 0 0 0 0 0 0 0 73 100 62 100 88 100 100 82 100 81 70 100 29 96 28 98 2 1 0 0 8 25 0 18
0 0 0 0 0 0 0 0 0 0 0 0 0 48 0 0 0 0 0 3 0 0 6 100 90 77 96 96 82 94 62 46 100 100 6 5 3 0 0 0 53 100 100 1 0
0 0 0 0 0 0 0 0 0 0 0 0 0 3 0 0 0 0 0 3 0 4 23 24 3 33 57 91 59 100 99 60 100 100 100 21 23 3 1 14 8 6 1 9 0
0 0 0 0 0 0 0 0 0 0 0 0 2 0 0 0 0 0 0 2 0 59 100 6 73 41 96 96 100 100 98 96 99 55 21 73 99 95 76 100 21 27 1 5 2
0 0 0 0 0 0 0 0 0 0 0 0 0 0 0 0 0 0 0 0 4 65 100 29 72 67 100 100 93 100 54 100 99 100 39 62 25 96 93 25 4 4 5 9 5
0 0 0 0 0 0 0 0 0 0 0 0 0 0 0 0 0 0 0 0 2 9 100 61 38 100 100 100 100 100 100 100 100 97 100 100 98 100 100 90 97 79 2 1 3
0 0 0 0 0 0 15 0 0 0 0 0 0 0 0 0 0 0 0 0 0 0 1 95 44 100 100 91 89 100 100 100 100 91 100 100 47 23 90 100 100 63 3 4 59
0 0 0 0 0 0 33 0 0 0 0 0 0 0 0 0 0 0 0 0 0 0 0 15 0 13 78 97 57 96 100 99 100 100 100 95 100 96 6 24 8 3 5 5 5
0 0 0 0 0 0 0 0 0 0 0 0 0 0 0 0 0 0 0 0 0 0 0 0 74 100 86 82 89 96 100 100 100 100 100 100 100 100 16 96 3 87 25 5 4
0 0 0 0 0 0 0 0 0 0 0 0 0 0 0 0 0 0 0 0 0 0 0 0 9 86 100 60 28 96 88 100 100 100 100 100 100 100 16 50 4 90 94 6 74
0 0 0 0 1 0 0 0 0 0 0 0 0 0 0 0 0 0 0 0 0 0 0 0 30 100 15 82 100 87 100 100 100 100 100 96 100 69 100 51 20 17 5 64 20
0 0 0 0 2 0 0 0 0 0 0 0 0 0 0 0 0 0 0 0 0 0 0 5 69 25 100 97 100 100 100 100 100 91 100 97 100 9 100 100 6 50 9 4 24
0 0 0 0 0 0 0 0 0 0 0 0 0 0 0 0 0 0 0 0 0 0 0 4 5 91 100 46 100 100 100 100 100 100 91 72 100 100 90 66 5 5 3 0 0
0 0 0 0 0 0 0 0 0 0 0 0 0 0 0 0 0 0 0 0 0 0 0 5 5 39 86 23 81 100 24 100 100 100 74 100 100 100 89 4 6 2 93 0 0
0 0 0 0 0 0 0 0 0 0 0 0 0 0 0 0 0 0 0 0 0 0 0 0 2 94 100 86 94 100 98 100 100 100 94 92 90 100 30 100 42 3 100 5 0
0 0 0 0 0 0 0 0 0 0 0 0 0 0 0 0 0 0 0 0 0 0 0 0 5 74 49 96 82 87 14 76 95 100 100 100 100 36 3 100 1 0 5 11 5
0 0 0 0 0 0 0 0 0 0 0 0 0 0 0 0 0 0 0 0 0 0 0 2 18 84 62 80 93 22 5 19 91 100 100 96 100 100 95 97 2 0 2 2 0
0 0 0 0 0 0 0 0 0 0 0 0 0 0 0 0 0 0 0 0 0 0 0 0 3 86 98 75 11 96 98 100 100 100 80 100 100 80 100 95 14 0 0 5 0
0 0 0 0 0 0 0 0 0 0 0 0 0 0 0 0 0 0 0 0 0 0 0 0 0 39 100 42 38 70 59 99 99 100 100 100 98 100 100 100 6 0 0 0 0
0 0 0 0 0 0 0 0 0 0 0 0 0 0 0 0 0 0 0 0 0 0 0 0 0 0 78 7 72 61 100 61 83 100 100 100 100 100 100 98 16 5 0 0 0
0 0 0 0 0 0 0 0 0 0 0 0 0 0 0 0 0 0 0 0 0 0 0 0 0 0 18 100 100 100 41 76 98 100 100 100 100 100 100 45 46 5 3 0 0
0 0 0 0 0 0 0 0 0 0 0 0 0 0 0 0 0 0 0 0 0 0 0 0 0 0 5 74 100 16 72 86 95 100 99 100 77 78 100 16 43 5 5 0 0
0 0 0 0 0 0 0 0 0 0 0 0 0 0 0 0 0 0 4 2 0 0 0 0 0 0 0 4 91 3 79 6 100 66 100 100 71 74 67 88 98 5 1 1 0